Tracking 30995 objects as of 5-Jul-2025
HD Live streaming from Space Station
objects crossing your sky now

SL-8 R/B

Track SL-8 R/B now!
10-day predictions


NORAD ID: 14547
Int'l Code: 1983-120B
Perigee: 947.1 km
Apogee: 1,013.6 km
Inclination: 82.9 °
Period: 104.5 minutes
Semi major axis: 7351 km
RCS: 4.4678 m2 (large)
Launch date: December 8, 1983
Source: Commonwealth of Independent States (former USSR) (CIS)
Launch site: PLESETSK MISSILE AND SPACE COMPLEX (PKMTR)

Note: This is a ROCKET BODY
Your satellite tracking list
COSMOS 2142
Track 1 satellite(s)




NASA's NSSDC Master Catalog

Two Line Element Set (TLE):
1 14547U 83120B   25186.63066627  .00000040  00000-0  24999-4 0  9994
2 14547  82.9305  62.2752 0045278 276.3678  83.2324 13.77377931844926
Source of the keplerian elements: AFSPC